User: anonymous   Login
Location: Napier
(39.4830°S, 176.9170°E)
Time: 10:16:14
(UTC+13:00)
Language:

Cosmos 2263 Rocket - Orbit

View from above orbital plane
View from above orbital plane
View from above satellite
View from above satellite

Ground track
Ground track

The orbit data is extracted from the following two-line orbital elements,

1 22803U 93059B   19288.14322490 -.00000194  00000-0 -72782-4 0  9990
2 22803  70.9893 258.3316 0017042 179.4187 180.6959 14.16816213348671
Epoch (UTC): 15 October 2019 03:26:14
Eccentricity: 0.0017042
inclination: 70.9893°
perigee height: 824 km
apogee height: 848 km
right ascension of ascending node: 258.3316°
argument of perigee: 179.4187°
revolutions per day: 14.16816213
mean anomaly at epoch: 180.6959°
orbit number at epoch: 34867

The dashed part of the orbit path shows where the satellite is in the earth's shadow,  

DLR